Weather History for EINN - April, 2013

Change the Weather History Date:

Wednesday, April 17, 2013

  Actual Average Record
Temperature  
Mean Temperature 54 °F -  
Max Temperature 59 °F 58 °F 73 °F (2003)
Min Temperature 48 °F 43 °F 32 °F (1999)
Degree Days  
Heating Degree Days 12    
Growing Degree Days 4 (Base 50)    
Moisture  
Dew Point 48 °F    
Average Humidity 85    
Maximum Humidity 100    
Minimum Humidity 63    
Precipitation  
Precipitation 0.08 in 0.08 in - ()
Sea Level Pressure  
Sea Level Pressure 29.40 in    
Wind  
Wind Speed 19 mph ()    
Max Wind Speed 40 mph    
Max Gust Speed 56 mph    
Visibility 5.8 miles    
Events Rain    
Averages and records for this station are not official NWS values.
T = Trace of Precipitation, MM = Missing Value Source: Averaged Metar Reports

Daily Weather History Graph

Daily Weather History Graph

Search for Another Location

Airport or City:

Trip Planner

Search our weather history database for the weather conditions in past years. The results will help you decide how hot, cold, wet, or windy it might be!

Date:

Astronomy

Apr. 17, 2013 Rise Set
Actual Time 6:32 AM IST 8:38 PM IST
Civil Twilight 5:56 AM IST 9:15 PM IST
Nautical Twilight 5:09 AM IST 10:02 PM IST
Astronomical Twilight 4:16 AM IST 10:56 PM IST
Moon 11:17 AM IST (4/17) 2:25 AM IST (4/17)
Length of Visible Light 15h 19m
Length of Day
14h 05m
Waxing Crescent, 40% of the Moon is Illuminated
Apr 17
Waxing Crescent
Apr 18
First Quarter
Apr 25
Full
May 2
Last Quarter
May 10
New

Hourly Weather History & Observations

Time (IST) Temp. Dew Point Humidity Pressure Visibility Wind Dir Wind Speed Gust Speed Precip Events Conditions
12:00 AM 50.0 °F 42.8 °F 76% 29.83 in - SE 11.5 mph - N/A   Clear
12:30 AM 50.0 °F 44.6 °F 82% 29.80 in - SE 10.4 mph - N/A   Clear
1:00 AM 50 °F 44 °F 74% 29.79 in 16 mi ESE 11.2 mph - -   Overcast
1:00 AM 50.0 °F 44.6 °F 82% 29.77 in 6.2 mi ESE 11.5 mph - N/A   Mostly Cloudy
1:30 AM 50.0 °F 44.6 °F 82% 29.74 in 6.2 mi ESE 13.8 mph - N/A Rain Light Rain
2:00 AM 50.0 °F 46.4 °F 87% 29.71 in 6.2 mi ESE 12.7 mph - N/A   Mostly Cloudy
2:30 AM 50.0 °F 44.6 °F 82% 29.68 in 6.2 mi ESE 19.6 mph - N/A   Mostly Cloudy
3:00 AM 50.0 °F 44.6 °F 82% 29.62 in 6.2 mi ESE 23.0 mph - N/A   Mostly Cloudy
3:30 AM 50.0 °F 46.4 °F 87% 29.59 in 6.2 mi ESE 26.5 mph - N/A Rain Light Rain
4:00 AM 50.0 °F 48.2 °F 94% 29.56 in 6.2 mi SE 25.3 mph - N/A Rain Light Rain
4:30 AM 50.0 °F 48.2 °F 94% 29.53 in 6.2 mi SE 25.3 mph - N/A Rain Light Rain
5:00 AM 50.0 °F 50.0 °F 100% 29.53 in 5.0 mi SE 20.7 mph - N/A Rain Light Rain
5:30 AM 51.8 °F 50.0 °F 94% 29.50 in 5.0 mi SE 17.3 mph - N/A Rain Light Rain
6:00 AM 51.8 °F 51.8 °F 100% 29.50 in 5.0 mi SSE 16.1 mph - N/A Rain Light Rain
6:30 AM 53.6 °F 51.8 °F 94% 29.50 in 5.0 mi SSE 13.8 mph - N/A Rain Light Rain
7:00 AM 54 °F 53 °F 95% 29.49 in 5 mi SSE 15.7 mph - - Rain Light Rain
7:00 AM 53.6 °F 53.6 °F 100% 29.47 in 5.0 mi SSE 15.0 mph - N/A Rain Light Rain
7:30 AM 53.6 °F 51.8 °F 94% 29.47 in 6.2 mi SSE 18.4 mph - N/A   Mostly Cloudy
8:00 AM 53.6 °F 51.8 °F 94% 29.47 in 4.3 mi SSE 21.9 mph - N/A Rain Light Rain
8:30 AM 53.6 °F 51.8 °F 94% 29.44 in 5.0 mi SSE 19.6 mph - N/A Rain Light Rain
9:00 AM 53.6 °F 51.8 °F 94% 29.44 in 3.7 mi SSE 20.7 mph - N/A Rain Light Rain
9:30 AM 53.6 °F 51.8 °F 94% 29.42 in 5.6 mi SSE 19.6 mph - N/A Rain Light Rain
10:00 AM 53.6 °F 53.6 °F 100% 29.42 in 5.6 mi SSE 21.9 mph - N/A Rain Light Rain
10:30 AM 55.4 °F 53.6 °F 94% 29.42 in 6.2 mi SSE 21.9 mph - N/A   Mostly Cloudy
11:00 AM 55.4 °F 53.6 °F 94% 29.42 in 6.2 mi SSE 19.6 mph - N/A Rain Light Rain
11:30 AM 57.2 °F 51.8 °F 82% 29.39 in 6.2 mi South 18.4 mph - N/A   Mostly Cloudy
12:00 PM 59.0 °F 51.8 °F 77% 29.36 in 6.2 mi South 20.7 mph - N/A   Mostly Cloudy
12:30 PM 57.2 °F 50.0 °F 77% 29.33 in 6.2 mi South 21.9 mph - N/A   Mostly Cloudy
1:00 PM 58 °F 50 °F 68% 29.35 in 12 mi South 22.4 mph - -   Partly Cloudy
1:00 PM 57.2 °F 50.0 °F 77% 29.33 in 6.2 mi South 23.0 mph - N/A   Mostly Cloudy
1:30 PM 59.0 °F 50.0 °F 72% 29.33 in 6.2 mi South 31.1 mph 44.9 mph N/A   Mostly Cloudy
2:00 PM 59.0 °F 46.4 °F 63% 29.30 in 6.2 mi South 28.8 mph - N/A   Mostly Cloudy
2:30 PM 59.0 °F 48.2 °F 67% 29.27 in 6.2 mi South 33.4 mph - N/A   Scattered Clouds
3:00 PM 57.2 °F 46.4 °F 67% 29.24 in 6.2 mi South 32.2 mph 54.1 mph N/A   Scattered Clouds
3:30 PM 57.2 °F 46.4 °F 67% 29.21 in 6.2 mi South 33.4 mph 47.2 mph N/A   Mostly Cloudy
4:00 PM 57.2 °F 48.2 °F 72% 29.21 in 6.2 mi South 32.2 mph 47.2 mph N/A   Mostly Cloudy
4:30 PM 55.4 °F 46.4 °F 72% 29.18 in 6.2 mi South 29.9 mph 44.9 mph N/A   Mostly Cloudy
5:00 PM 55.4 °F 46.4 °F 72% 29.15 in 6.2 mi South 29.9 mph - N/A   Mostly Cloudy
5:30 PM 53.6 °F 46.4 °F 77% 29.12 in 6.2 mi South 32.2 mph 46.0 mph N/A   Scattered Clouds
6:00 PM 51.8 °F 44.6 °F 76% 29.12 in 6.2 mi South 33.4 mph 46.0 mph N/A Rain Light Rain Showers
6:30 PM 51.8 °F 46.4 °F 82% 29.12 in 6.2 mi South 28.8 mph 40.3 mph N/A Rain Light Rain Showers
7:00 PM 51 °F 48 °F 84% 29.16 in 5 mi South 20.1 mph - - Rain Light Rain Showers
7:00 PM 51.8 °F 48.2 °F 88% 29.15 in 5.0 mi South 20.7 mph - N/A Rain Light Rain Showers
7:30 PM 51.8 °F 50.0 °F 94% 29.15 in 2.5 mi SSW 29.9 mph 44.9 mph N/A Rain Light Rain Showers
8:00 PM 50.0 °F 48.2 °F 94% 29.18 in 3.1 mi SW 29.9 mph 56.4 mph N/A Rain Light Rain Showers
8:30 PM 50.0 °F 46.4 °F 87% 29.21 in 3.1 mi SW 40.3 mph 56.4 mph N/A Rain Light Rain Showers
9:00 PM 48.2 °F 46.4 °F 93% 29.24 in 3.1 mi SW 39.1 mph 52.9 mph N/A Rain Light Rain Showers
9:30 PM 48.2 °F 46.4 °F 93% 29.27 in 3.1 mi SW 36.8 mph 51.8 mph N/A Rain Light Rain Showers
10:00 PM 48.2 °F 44.6 °F 87% 29.27 in 5.0 mi SW 36.8 mph 54.1 mph N/A Rain Light Rain Showers
10:30 PM 48.2 °F 44.6 °F 87% 29.30 in 6.2 mi SW 38.0 mph 51.8 mph N/A Rain Light Rain
11:00 PM 48.2 °F 44.6 °F 87% 29.33 in 5.0 mi SW 40.3 mph 52.9 mph N/A Rain Light Rain
11:30 PM 48.2 °F 46.4 °F 93% 29.36 in - North - - N/A Rain Light Rain